This is the latest recevied weather packets stored in our database for station/object EA5JMY-10. If no packets are shown the sender has not sent any weather packets the latest 10 day(s).
| Time | Temp. | Humidity | Pressure | Rain* | Wind** | Luminosity | Snow |
|---|---|---|---|---|---|---|---|
| 1788135884 | 77° F | 67% | 763.5 mmHg | - | - | - | - |
| 1788134984 | 78° F | 65% | 763.6 mmHg | - | - | - | - |
| 1788134084 | 79° F | 64% | 763.5 mmHg | - | - | - | - |
| 1788133184 | 79° F | 64% | 763.6 mmHg | - | - | - | - |
| 1788132283 | 79° F | 64% | 763.5 mmHg | - | - | - | - |
| 1788131383 | 79° F | 66% | 763.5 mmHg | - | - | - | - |
| 1788130483 | 79° F | 65% | 763.5 mmHg | - | - | - | - |
| 1788129583 | 79° F | 63% | 763.3 mmHg | - | - | - | - |
| 1788128683 | 80° F | 60% | 763.4 mmHg | - | - | - | - |
| 1788127783 | 80° F | 58% | 763.2 mmHg | - | - | - | - |
| 1788126883 | 80° F | 57% | 763.2 mmHg | - | - | - | - |
| 1788125983 | 80° F | 63% | 763 mmHg | - | - | - | - |
| 1788125082 | 81° F | 64% | 762.9 mmHg | - | - | - | - |
| 1788124182 | 82° F | 63% | 762.7 mmHg | - | - | - | - |
| 1788123282 | 83° F | 59% | 762.7 mmHg | - | - | - | - |
| 1788122382 | 84° F | 50% | 762.5 mmHg | - | - | - | - |
| 1788121482 | 85° F | 45% | 762.4 mmHg | - | - | - | - |
| 1788120582 | 86° F | 42% | 762.1 mmHg | - | - | - | - |
| 1788119682 | 85° F | 30% | 761.9 mmHg | - | - | - | - |
| 1788118782 | 84° F | 31% | 761.8 mmHg | - | - | - | - |
| 1788117882 | 85° F | 30% | 761.5 mmHg | - | - | - | - |
| 1788116982 | 87° F | 29% | 761.5 mmHg | - | - | - | - |
| 1788116081 | 88° F | 27% | 761.3 mmHg | - | - | - | - |
| 1788115181 | 88° F | 28% | 761.2 mmHg | - | - | - | - |
| 1788114281 | 91° F | 27% | 761.2 mmHg | - | - | - | - |
* Rain since midnight (hover to see other rain measurements)
** Current wind speed in m/s (hover to see current wind gust speed)